Ukiah, CA

7:54 PM PDT on August 23, 2016 (GMT -0700)
Ukiah Municipal

Weather History for KUKI - November, 2011

Change the Weather History Date:

Tuesday, November 8, 2011

  Actual Average Record
Temperature  
Mean Temperature 49 °F 53 °F  
Max Temperature 62 °F 66 °F 85 °F (1955)
Min Temperature 35 °F 40 °F 24 °F (1919)
Degree Days  
Heating Degree Days 16 12  
Month to date heating degree days 129 87  
Since 1 July heating degree days 244 287  
Cooling Degree Days 0 0  
Month to date cooling degree days 0 0  
Year to date cooling degree days 895 835  
Moisture  
Dew Point 39 °F    
Average Humidity 71    
Maximum Humidity 100    
Minimum Humidity 42    
Precipitation  
Precipitation 0.00 in 0.11 in 3.02 in (2002)
Month to date precipitation 0.75 1.00  
Year to date precipitation 26.40 27.13  
Since 1 July precipitation 4.36  
Snow  
Snow 0.00 in - - ()
Month to date snowfall 0.0  
Since 1 July snowfall 0.0  
Since 1 September snowfall 0.0  
Snow Depth 0.00 in    
Sea Level Pressure  
Sea Level Pressure 30.30 in    
Wind  
Wind Speed 1 mph (NE)    
Max Wind Speed 5 mph    
Max Gust Speed -    
Visibility 6 miles    
Events Fog    
T = Trace of Precipitation, MM = Missing Value Source: NWS Daily Summary

Daily Weather History Graph

Daily Weather History Graph

Search for Another Location

Airport or City:

Trip Planner

Search our weather history database for the weather conditions in past years. The results will help you decide how hot, cold, wet, or windy it might be!

Date:

Astronomy

Nov. 08, 2011 Rise Set
Actual Time 6:47 AM PST 5:04 PM PST
Civil Twilight 6:19 AM PST 5:32 PM PST
Nautical Twilight 5:47 AM PST 6:04 PM PST
Astronomical Twilight 5:16 AM PST 6:36 PM PST
Moon 3:47 PM PST (11/8) 4:52 AM PST (11/8)
Length of Visible Light 11h 12m
Length of Day
10h 16m
Waxing Gibbous, 96% of the Moon is Illuminated
Nov 8
Waxing Gibbous
Nov 10
Full
Nov 18
Last Quarter
Nov 24
New
Dec 2
First Quarter

Hourly Weather History & Observations

Time (PST) Temp. Windchill Dew Point Humidity Pressure Visibility Wind Dir Wind Speed Gust Speed Precip Events Conditions
12:56 AM 37.9 °F - 36.0 °F 93% 30.28 in 10.0 mi Calm Calm - N/A   Partly Cloudy
1:07 AM 35.6 °F - 35.6 °F 100% 30.28 in 10.0 mi Calm Calm - N/A   Mostly Cloudy
1:47 AM 37.4 °F - 37.4 °F 100% 30.29 in 1.5 mi Calm Calm - N/A   Overcast
1:56 AM 37.9 °F - 37.9 °F 100% 30.28 in 0.5 mi Calm Calm - N/A Fog Fog
2:18 AM 39.2 °F - 39.2 °F 100% 30.29 in 0.2 mi Calm Calm - N/A Fog Fog
2:56 AM 39.0 °F - 39.0 °F 100% 30.29 in 0.2 mi Calm Calm - N/A Fog Fog
3:56 AM 37.9 °F - 37.9 °F 100% 30.29 in 0.2 mi Calm Calm - N/A Fog Fog
4:10 AM 37.4 °F - 37.4 °F 100% 30.29 in 0.5 mi Calm Calm - N/A Fog Fog
4:30 AM 37.4 °F - 37.4 °F 100% 30.30 in 0.2 mi Calm Calm - N/A Fog Fog
4:56 AM 37.9 °F - 37.9 °F 100% 30.30 in 0.2 mi Calm Calm - N/A Fog Fog
5:12 AM 37.4 °F - 37.4 °F 100% 30.30 in 0.5 mi Calm Calm - N/A Fog Fog
5:37 AM 37.4 °F - 37.4 °F 100% 30.31 in 1.0 mi Calm Calm - N/A   Mist
5:52 AM 37.4 °F - 37.4 °F 100% 30.32 in 3.0 mi Calm Calm - N/A   Overcast
5:56 AM 39.0 °F - 39.0 °F 100% 30.32 in 5.0 mi Calm Calm - N/A   Overcast
6:15 AM 37.4 °F - 37.4 °F 100% 30.32 in 2.5 mi Calm Calm - N/A   Overcast
6:28 AM 37.4 °F - 37.4 °F 100% 30.32 in 1.2 mi Calm Calm - N/A   Overcast
6:49 AM 39.2 °F - 39.2 °F 100% 30.32 in 0.8 mi Calm Calm - N/A   Mist
6:56 AM 37.9 °F - 37.9 °F 100% 30.32 in 3.0 mi Calm Calm - N/A   Overcast
7:33 AM 37.4 °F - 37.4 °F 100% 30.33 in 1.8 mi Calm Calm - N/A   Overcast
7:53 AM 39.2 °F - 37.4 °F 93% 30.33 in 3.0 mi Calm Calm - N/A   Overcast
7:56 AM 39.0 °F - 37.9 °F 96% 30.33 in 4.0 mi Calm Calm - N/A   Overcast
8:56 AM 39.0 °F 36.8 °F 37.9 °F 96% 30.35 in 10.0 mi North 3.5 mph - N/A   Overcast
9:56 AM 42.1 °F - 39.0 °F 89% 30.35 in 10.0 mi Calm Calm - N/A   Overcast
10:19 AM 42.8 °F - 39.2 °F 87% 30.34 in 10.0 mi Calm Calm - N/A   Mostly Cloudy
10:29 AM 44.6 °F - 39.2 °F 81% 30.34 in 10.0 mi Calm Calm - N/A   Scattered Clouds
10:56 AM 45.0 °F - 39.9 °F 82% 30.34 in 10.0 mi Calm Calm - N/A   Clear
11:56 AM 52.0 °F - 41.0 °F 66% 30.31 in 10.0 mi Calm Calm - N/A   Clear
12:56 PM 55.9 °F - 41.0 °F 57% 30.28 in 10.0 mi South 3.5 mph - N/A   Clear
1:56 PM 61.0 °F - 39.9 °F 46% 30.26 in 10.0 mi East 3.5 mph - N/A   Clear
2:56 PM 61.0 °F - 37.9 °F 42% 30.25 in 10.0 mi East 3.5 mph - N/A   Clear
3:56 PM 57.0 °F - 42.1 °F 57% 30.26 in 10.0 mi West 4.6 mph - N/A   Clear
4:56 PM 53.1 °F - 41.0 °F 64% 30.25 in 10.0 mi West 4.6 mph - N/A   Clear
5:56 PM 50.0 °F - 41.0 °F 71% 30.26 in 7.0 mi Calm Calm - N/A   Clear
6:56 PM 46.4 °F - 41.0 °F 81% 30.28 in 10.0 mi Calm Calm - N/A   Clear
7:56 PM 45.0 °F - 41.0 °F 86% 30.28 in 10.0 mi Calm Calm - N/A   Clear
8:56 PM 44.1 °F - 39.9 °F 85% 30.30 in 10.0 mi Calm Calm - N/A   Clear
9:56 PM 41.0 °F - 39.0 °F 93% 30.30 in 10.0 mi Calm Calm - N/A   Clear
10:56 PM 39.2 °F - 37.4 °F 93% 30.31 in 10.0 mi Calm Calm - N/A   Clear
11:56 PM 36.0 °F - 35.1 °F 97% 30.30 in 10.0 mi Calm Calm - N/A   Clear